GFSGBSN_prec_snow_276.txt.gz
Snowfall_Accumulation
0.0 0.0 0.0 0.0 0.0 0.0 0.0 0.0 0.0 0.0 0.0 0.0 0.0 0.0 0.0 0.0 0.0 0.0 0.0 0.0 0.0 0.0 0.0 0.0 0.0 0.0 0.0 0.0 0.0 0.0 0.0 0.0 0.0 0.0 0.0 0.0 0.0 0.0 0.0 0.0 0.0 0.0 0.0 0.0 0.0 0.0 0.0
0.0 0.0 0.0 0.0 0.0 0.0 0.0 0.0 0.0 0.0 0.0 0.0 0.0 0.0 0.0 0.0 0.0 0.0 0.0 0.0 0.0 0.0 0.0 0.0 0.0 0.0 0.0 0.0 0.0 0.0 0.0 0.0 0.0 0.0 0.0 0.0 0.0 0.0 0.0 0.0 0.0 0.0 0.0 0.0 0.0 0.0 0.0
0.0 0.0 0.0 0.0 0.0 0.0 0.0 0.0 0.0 0.0 0.0 0.0 0.0 0.0 0.0 0.0 0.0 0.0 0.0 0.0 0.0 0.0 0.0 0.0 0.0 0.0 0.0 0.0 0.0 0.0 0.0 0.0 0.0 0.0 0.0 0.0 0.0 0.0 0.0 0.0 0.0 0.0 0.0 0.0 0.0 0.0 0.0
0.0 0.0 0.0 0.0 0.0 0.0 0.0 0.0 0.0 0.0 0.0 0.0 0.0 0.0 0.0 0.0 0.0 0.0 0.0 0.0 0.0 0.0 0.0 0.0 0.0 0.0 0.0 0.0 0.0 0.0 0.0 0.0 0.0 0.0 0.0 0.0 0.0 0.0 0.0 0.0 0.0 0.0 0.0 0.0 0.0 0.0 0.0
0.0 0.0 0.0 0.0 0.0 0.0 0.0 0.0 0.0 0.0 0.0 0.0 0.0 0.0 0.0 0.0 0.0 0.0 0.0 0.0 0.0 0.0 0.0 0.0 0.0 0.0 0.0 0.0 0.0 0.0 0.0 0.0 0.0 0.0 0.0 0.0 0.0 0.0 0.0 0.0 0.0 0.0 0.0 0.0 0.0 0.0 0.0
0.0 0.0 0.0 0.0 0.0 0.0 0.0 0.0 0.0 0.0 0.0 0.0 0.0 0.0 0.0 0.0 0.0 0.0 0.0 0.0 0.0 0.0 0.0 0.0 0.0 0.0 0.0 0.0 0.0 0.0 0.0 0.0 0.0 0.0 0.0 0.0 0.0 0.0 0.0 0.0 0.0 0.0 0.0 0.0 0.0 0.0 0.0
0.0 0.0 0.0 0.0 0.0 0.0 0.0 0.0 0.0 0.0 0.0 0.0 0.0 0.0 0.0 0.0 0.0 0.0 0.0 0.0 0.0 0.0 0.0 0.0 0.0 0.0 0.0 0.0 0.0 0.0 0.0 0.0 0.0 0.0 0.0 0.0 0.0 0.0 0.0 0.0 0.0 0.0 0.0 0.0 0.0 0.0 0.0
0.0 0.0 0.0 0.0 0.0 0.0 0.0 0.0 0.0 0.0 0.0 0.0 0.0 0.0 0.0 0.0 0.0 0.0 0.0 0.0 0.0 0.0 0.0 0.0 0.0 0.0 0.0 0.0 0.0 0.0 0.0 0.0 0.0 0.0 0.0 0.0 0.0 0.0 0.0 0.0 0.0 0.0 0.0 0.0 0.0 0.0 0.0
0.0 0.0 0.0 0.0 0.0 0.0 0.0 0.0 0.0 0.0 0.0 0.0 0.0 0.0 0.0 0.0 0.0 0.0 0.0 0.0 0.0 0.0 0.7 0.0 0.0 0.0 0.0 0.0 0.0 0.0 0.0 0.0 0.0 0.0 0.0 0.0 0.0 0.0 0.0 0.0 0.0 0.0 0.0 0.0 0.0 0.0 0.0
0.0 0.0 0.0 0.0 0.0 0.0 0.0 0.0 0.0 0.0 0.0 0.0 0.0 0.0 0.0 0.0 0.0 0.0 0.0 0.0 0.0 0.0 1.8 0.0 0.0 0.0 0.0 0.0 0.0 0.0 0.0 0.0 0.0 0.0 0.0 0.0 0.0 0.0 0.0 0.0 0.0 0.0 0.0 0.0 0.0 0.0 0.0
0.0 0.0 0.0 0.0 0.0 0.0 0.0 0.0 0.0 0.0 0.0 0.0 0.0 0.0 0.0 0.0 0.0 0.0 0.0 0.0 0.0 0.0 19.8 0.0 0.0 0.0 0.0 0.0 0.0 0.0 0.0 0.0 0.0 0.0 0.0 0.0 0.0 0.0 0.0 0.0 0.0 0.0 0.0 0.0 0.0 0.0 0.0
0.0 0.0 0.0 0.0 0.0 0.0 0.0 0.0 0.0 0.0 0.0 0.0 0.0 0.0 0.0 0.0 0.0 0.0 0.0 0.0 0.0 13.4 21.3 0.1 0.0 0.0 0.0 0.0 0.0 0.0 0.0 0.0 0.0 0.0 0.0 0.0 0.0 0.0 0.0 0.0 0.0 0.0 0.0 0.0 0.0 0.0 0.9
0.0 0.0 0.0 0.0 0.0 0.0 0.0 0.0 0.0 0.0 0.0 0.0 0.0 0.0 0.0 0.0 0.0 0.0 0.0 0.0 32.2 47.5 0.0 0.0 0.0 0.0 0.0 0.0 0.0 0.0 0.0 0.0 0.0 0.7 0.2 0.0 0.0 0.0 0.0 0.0 0.0 0.0 0.1 1.5 0.9 0.7 0.0
0.0 0.0 0.0 0.0 0.0 0.0 0.0 0.0 0.0 0.0 0.0 0.0 0.0 0.0 0.0 0.0 0.0 0.0 0.0 7.5 67.1 6.2 2.4 0.0 0.0 0.0 0.2 0.0 0.4 0.0 0.0 0.3 0.0 0.0 0.0 0.2 0.3 0.0 0.0 0.0 0.0 0.0 0.0 1.8 2.6 0.4 0.4
0.0 0.0 0.0 0.0 0.0 0.0 0.0 0.0 0.0 0.0 0.0 0.0 0.0 0.0 0.0 0.0 0.0 0.0 0.4 77.6 32.9 0.0 0.3 0.2 0.0 0.0 0.2 0.0 0.0 0.4 0.5 0.4 0.0 0.0 0.7 0.7 0.1 0.0 0.0 0.0 0.0 0.0 0.6 0.0 2.6 1.1 1.1
0.0 0.0 0.0 0.0 0.0 0.0 0.0 0.0 0.0 0.0 0.0 0.0 0.0 0.0 0.0 0.0 0.0 0.0 10.6 52.2 10.2 0.0 0.0 0.0 0.3 0.6 0.1 0.0 0.5 0.8 0.5 1.6 0.2 0.0 0.0 0.0 0.2 0.0 0.0 0.0 0.0 0.0 0.0 3.4 5.6 7.7 3.2
0.0 0.0 0.0 0.0 0.0 0.0 0.0 0.0 0.0 0.0 0.0 0.0 0.0 4.2 0.0 0.0 0.0 0.3 61.9 15.9 3.7 0.0 0.0 0.3 0.7 0.1 0.3 0.1 0.3 0.6 1.9 0.6 0.0 0.0 0.0 0.0 0.8 0.5 0.0 0.0 0.0 0.0 0.9 0.3 1.4 2.5 5.2
0.0 0.0 0.0 0.0 0.0 0.0 0.0 0.0 0.0 0.0 0.0 0.0 0.0 56.3 0.0 0.0 28.1 47.9 43.0 7.3 0.0 0.1 0.0 0.0 0.0 0.2 0.6 0.4 0.3 0.7 0.1 0.0 0.0 0.0 1.7 0.7 1.6 1.3 0.3 0.0 0.0 0.0 0.0 0.6 10.0 4.6 2.8
0.0 0.0 0.0 0.0 0.0 0.0 0.0 0.0 0.0 0.0 0.0 0.0 29.3 28.4 0.0 0.0 90.0 64.8 12.8 4.4 0.1 0.0 0.0 0.1 0.2 0.0 0.1 0.7 2.4 1.1 1.2 0.0 0.0 1.7 2.7 1.2 4.3 3.9 0.8 0.0 0.0 0.2 1.4 1.4 3.0 2.6 4.8
0.0 0.0 0.0 0.0 0.0 0.0 0.0 0.0 0.0 0.0 0.0 0.0 12.9 55.2 8.5 4.4 24.4 24.4 21.1 14.1 7.2 0.1 0.3 0.2 0.9 0.0 0.1 0.2 0.4 0.6 1.2 0.0 0.0 0.5 0.0 0.0 3.7 4.9 3.8 4.3 2.3 2.9 0.7 1.6 5.8 18.8 9.1
0.0 0.0 0.0 0.0 0.0 0.0 0.0 0.0 0.0 0.0 0.0 0.0 28.0 50.2 2.0 60.1 49.5 18.5 12.4 14.2 9.6 8.5 4.5 2.7 4.5 1.8 2.7 3.5 2.6 1.0 1.3 1.8 0.8 0.0 3.2 3.4 13.0 5.9 1.6 0.2 0.4 1.9 1.3 0.2 4.3 1.9 14.2
0.0 0.0 0.0 0.0 0.0 0.0 0.0 0.0 0.0 0.0 0.0 0.0 61.4 25.9 3.5 8.8 4.6 12.0 16.0 20.2 8.2 6.9 8.9 7.8 9.6 4.9 1.7 7.6 4.5 3.8 1.5 0.4 2.1 1.2 3.8 1.6 9.1 6.7 8.8 0.0 1.8 4.0 1.7 0.3 1.7 1.9 4.4
0.0 0.0 0.0 0.0 0.0 0.0 0.0 0.0 0.0 0.0 0.0 14.7 6.6 0.0 12.7 9.3 9.4 15.2 19.4 8.3 5.4 3.4 5.2 2.2 5.6 6.0 3.7 5.6 2.7 1.6 1.3 1.0 1.7 2.3 4.4 3.2 6.1 12.6 10.8 0.8 4.5 15.3 2.3 0.1 2.7 2.8 2.5
0.0 0.0 0.0 0.0 0.0 0.0 0.0 0.0 0.0 0.0 0.0 0.0 0.1 2.7 26.5 33.8 12.0 6.2 1.9 2.6 3.5 3.1 6.0 1.2 0.1 6.3 0.0 0.0 0.0 0.2 0.0 0.0 0.0 0.0 0.1 3.6 8.1 15.0 17.2 10.4 26.0 2.9 1.2 0.3 2.7 3.1 2.8
0.0 0.0 0.0 0.0 0.0 0.0 0.0 0.0 0.0 0.0 0.0 0.5 0.0 2.5 25.2 32.0 6.4 1.8 1.7 1.4 1.3 1.4 3.5 1.9 0.7 0.0 0.0 0.1 7.8 15.6 13.9 7.9 2.2 0.0 0.0 0.4 3.4 23.8 21.7 11.7 4.5 4.3 7.1 6.6 5.2 4.0 2.5
0.0 0.0 0.0 0.0 0.0 0.0 0.0 0.0 0.0 0.0 0.0 0.0 0.0 0.0 12.5 39.1 16.2 0.3 2.3 1.3 6.0 5.4 6.7 3.2 0.0 0.0 1.4 13.2 24.3 27.3 12.9 8.5 4.2 1.7 0.0 0.0 1.4 17.8 22.8 23.4 16.0 7.9 2.5 2.5 4.3 6.8 3.1
0.0 0.0 0.0 0.0 0.0 0.0 0.0 0.0 0.0 0.0 0.0 0.0 0.0 0.0 7.2 43.6 3.1 0.0 9.8 8.0 0.7 2.0 11.7 4.1 2.4 0.5 1.1 21.2 36.5 24.6 9.9 1.1 7.1 4.0 3.1 5.8 10.9 20.2 16.2 25.9 7.7 3.2 4.1 3.7 6.6 9.0 3.3
0.0 0.0 0.0 0.0 0.0 0.0 0.0 0.0 0.0 0.0 0.0 0.0 0.0 0.0 3.7 37.5 5.3 0.0 0.0 5.7 1.5 2.4 14.0 1.4 11.9 10.5 17.1 34.4 28.9 21.7 16.6 6.8 7.6 6.6 6.0 3.6 15.8 19.5 19.5 25.4 15.9 2.4 3.8 4.1 5.2 3.3 2.0
0.0 0.0 0.0 0.0 0.0 0.0 0.0 0.0 0.0 0.0 0.0 0.0 9.4 0.0 0.0 17.1 8.0 0.2 0.0 0.0 0.0 0.0 3.4 4.6 10.4 9.4 13.0 19.7 20.3 17.2 19.5 12.8 9.5 11.3 6.7 13.3 10.4 12.4 10.3 8.4 3.7 2.9 3.4 3.3 2.1 1.6 1.8

GFSGBSN_prec_snow_279.txt.gz
Snowfall_Accumulation
0.0 0.0 0.0 0.0 0.0 0.0 0.0 0.0 0.0 0.0 0.0 0.0 0.0 0.0 0.0 0.0 0.0 0.0 0.0 0.0 0.0 0.0 0.0 0.0 0.0 0.0 0.0 0.0 0.0 0.0 0.0 0.0 0.0 0.0 0.0 0.0 0.0 0.0 0.0 0.0 0.0 0.0 0.0 0.0 0.0 0.0 0.0
0.0 0.0 0.0 0.0 0.0 0.0 0.0 0.0 0.0 0.0 0.0 0.0 0.0 0.0 0.0 0.0 0.0 0.0 0.0 0.0 0.0 0.0 0.0 0.0 0.0 0.0 0.0 0.0 0.0 0.0 0.0 0.0 0.0 0.0 0.0 0.0 0.0 0.0 0.0 0.0 0.0 0.0 0.0 0.0 0.0 0.0 0.0
0.0 0.0 0.0 0.0 0.0 0.0 0.0 0.0 0.0 0.0 0.0 0.0 0.0 0.0 0.0 0.0 0.0 0.0 0.0 0.0 0.0 0.0 0.0 0.0 0.0 0.0 0.0 0.0 0.0 0.0 0.0 0.0 0.0 0.0 0.0 0.0 0.0 0.0 0.0 0.0 0.0 0.0 0.0 0.0 0.0 0.0 0.0
0.0 0.0 0.0 0.0 0.0 0.0 0.0 0.0 0.0 0.0 0.0 0.0 0.0 0.0 0.0 0.0 0.0 0.0 0.0 0.0 0.0 0.0 0.0 0.0 0.0 0.0 0.0 0.0 0.0 0.0 0.0 0.0 0.0 0.0 0.0 0.0 0.0 0.0 0.0 0.0 0.0 0.0 0.0 0.0 0.0 0.0 0.0
0.0 0.0 0.0 0.0 0.0 0.0 0.0 0.0 0.0 0.0 0.0 0.0 0.0 0.0 0.0 0.0 0.0 0.0 0.0 0.0 0.0 0.0 0.0 0.0 0.0 0.0 0.0 0.0 0.0 0.0 0.0 0.0 0.0 0.0 0.0 0.0 0.0 0.0 0.0 0.0 0.0 0.0 0.0 0.0 0.0 0.0 0.0
0.0 0.0 0.0 0.0 0.0 0.0 0.0 0.0 0.0 0.0 0.0 0.0 0.0 0.0 0.0 0.0 0.0 0.0 0.0 0.0 0.0 0.0 0.0 0.0 0.0 0.0 0.0 0.0 0.0 0.0 0.0 0.0 0.0 0.0 0.0 0.0 0.0 0.0 0.0 0.0 0.0 0.0 0.0 0.0 0.0 0.0 0.0
0.0 0.0 0.0 0.0 0.0 0.0 0.0 0.0 0.0 0.0 0.0 0.0 0.0 0.0 0.0 0.0 0.0 0.0 0.0 0.0 0.0 0.0 0.0 0.0 0.0 0.0 0.0 0.0 0.0 0.0 0.0 0.0 0.0 0.0 0.0 0.0 0.0 0.0 0.0 0.0 0.0 0.0 0.0 0.0 0.0 0.0 0.0
0.0 0.0 0.0 0.0 0.0 0.0 0.0 0.0 0.0 0.0 0.0 0.0 0.0 0.0 0.0 0.0 0.0 0.0 0.0 0.0 0.0 0.0 0.0 0.0 0.0 0.0 0.0 0.0 0.0 0.0 0.0 0.0 0.0 0.0 0.0 0.0 0.0 0.0 0.0 0.0 0.0 0.0 0.0 0.0 0.0 0.0 0.0
0.0 0.0 0.0 0.0 0.0 0.0 0.0 0.0 0.0 0.0 0.0 0.0 0.0 0.0 0.0 0.0 0.0 0.0 0.0 0.0 0.0 0.0 0.7 0.0 0.0 0.0 0.0 0.0 0.0 0.0 0.0 0.0 0.0 0.0 0.0 0.0 0.0 0.0 0.0 0.0 0.0 0.0 0.0 0.0 0.0 0.0 0.0
0.0 0.0 0.0 0.0 0.0 0.0 0.0 0.0 0.0 0.0 0.0 0.0 0.0 0.0 0.0 0.0 0.0 0.0 0.0 0.0 0.0 0.0 1.8 0.0 0.0 0.0 0.0 0.0 0.0 0.0 0.0 0.0 0.0 0.0 0.0 0.0 0.0 0.0 0.0 0.0 0.0 0.0 0.0 0.0 0.0 0.0 0.0
0.0 0.0 0.0 0.0 0.0 0.0 0.0 0.0 0.0 0.0 0.0 0.0 0.0 0.0 0.0 0.0 0.0 0.0 0.0 0.0 0.0 0.0 19.8 0.0 0.0 0.0 0.0 0.0 0.0 0.0 0.0 0.0 0.0 0.0 0.0 0.0 0.0 0.0 0.0 0.0 0.0 0.0 0.0 0.0 0.0 0.0 0.0
0.0 0.0 0.0 0.0 0.0 0.0 0.0 0.0 0.0 0.0 0.0 0.0 0.0 0.0 0.0 0.0 0.0 0.0 0.0 0.0 0.0 13.4 21.3 0.1 0.0 0.0 0.0 0.0 0.0 0.0 0.0 0.0 0.0 0.0 0.0 0.0 0.0 0.0 0.0 0.0 0.0 0.0 0.0 0.0 0.0 0.0 0.9
0.0 0.0 0.0 0.0 0.0 0.0 0.0 0.0 0.0 0.0 0.0 0.0 0.0 0.0 0.0 0.0 0.0 0.0 0.0 0.0 32.2 47.5 0.0 0.0 0.0 0.0 0.0 0.0 0.0 0.0 0.0 0.0 0.0 0.7 0.2 0.0 0.0 0.0 0.0 0.0 0.0 0.0 0.1 1.5 0.9 0.7 0.0
0.0 0.0 0.0 0.0 0.0 0.0 0.0 0.0 0.0 0.0 0.0 0.0 0.0 0.0 0.0 0.0 0.0 0.0 0.0 7.5 67.1 6.2 2.4 0.0 0.0 0.0 0.2 0.0 0.4 0.0 0.0 0.3 0.0 0.0 0.0 0.2 0.3 0.0 0.0 0.0 0.0 0.0 0.0 1.8 2.6 0.4 0.4
0.0 0.0 0.0 0.0 0.0 0.0 0.0 0.0 0.0 0.0 0.0 0.0 0.0 0.0 0.0 0.0 0.0 0.0 0.4 77.6 32.9 0.0 0.3 0.2 0.0 0.0 0.2 0.0 0.0 0.4 0.5 0.4 0.0 0.0 0.7 0.7 0.1 0.0 0.0 0.0 0.0 0.0 0.6 0.0 2.6 1.1 1.1
0.0 0.0 0.0 0.0 0.0 0.0 0.0 0.0 0.0 0.0 0.0 0.0 0.0 0.0 0.0 0.0 0.0 0.0 10.6 52.2 10.2 0.0 0.0 0.0 0.3 0.6 0.1 0.0 0.5 0.8 0.5 1.6 0.2 0.0 0.0 0.0 0.2 0.0 0.0 0.0 0.0 0.0 0.0 3.4 5.6 7.7 3.2
0.0 0.0 0.0 0.0 0.0 0.0 0.0 0.0 0.0 0.0 0.0 0.0 0.0 4.2 0.0 0.0 0.0 0.3 61.9 15.9 3.7 0.0 0.0 0.3 0.7 0.1 0.3 0.1 0.3 0.6 1.9 0.6 0.0 0.0 0.0 0.0 0.8 0.5 0.0 0.0 0.0 0.0 0.9 0.3 1.4 2.5 5.2
0.0 0.0 0.0 0.0 0.0 0.0 0.0 0.0 0.0 0.0 0.0 0.0 0.0 56.3 0.0 0.0 28.1 47.9 43.0 7.3 0.0 0.1 0.0 0.0 0.0 0.2 0.6 0.4 0.3 0.7 0.1 0.0 0.0 0.0 1.7 0.7 1.6 1.3 0.3 0.0 0.0 0.0 0.0 0.6 10.0 4.6 2.8
0.0 0.0 0.0 0.0 0.0 0.0 0.0 0.0 0.0 0.0 0.0 0.0 29.3 28.4 0.0 0.0 90.0 64.8 12.8 4.4 0.1 0.0 0.0 0.1 0.2 0.0 0.1 0.7 2.4 1.1 1.2 0.0 0.0 1.7 2.7 1.2 4.3 3.9 0.8 0.0 0.0 0.2 1.4 1.4 3.0 2.6 4.8
0.0 0.0 0.0 0.0 0.0 0.0 0.0 0.0 0.0 0.0 0.0 0.0 12.9 55.2 8.5 4.4 24.4 24.4 21.1 14.1 7.2 0.1 0.3 0.2 0.9 0.0 0.1 0.2 0.4 0.6 1.2 0.0 0.0 0.5 0.0 0.0 3.7 4.9 3.8 4.3 2.3 2.9 0.7 1.6 5.8 18.8 9.1
0.0 0.0 0.0 0.0 0.0 0.0 0.0 0.0 0.0 0.0 0.0 0.0 28.0 50.3 2.0 60.1 49.5 18.5 12.4 14.2 9.6 8.5 4.5 2.7 4.5 1.8 2.7 3.5 2.6 1.0 1.3 1.8 0.8 0.0 3.2 3.4 13.0 5.9 1.6 0.2 0.4 1.9 1.3 0.2 4.3 1.9 14.2
0.0 0.0 0.0 0.0 0.0 0.0 0.0 0.0 0.0 0.0 0.0 0.0 61.5 26.0 3.5 8.8 4.6 12.0 16.0 20.2 8.2 6.9 8.9 7.8 9.6 4.9 1.7 7.6 4.5 3.8 1.5 0.4 2.1 1.2 3.8 1.6 9.1 6.7 8.8 0.0 1.8 4.0 1.7 0.3 1.7 1.9 4.4
0.0 0.0 0.0 0.0 0.0 0.0 0.0 0.0 0.0 0.0 0.0 14.8 6.6 0.0 12.8 9.3 9.4 15.2 19.4 8.3 5.4 3.4 5.2 2.2 5.6 6.0 3.7 5.6 2.7 1.6 1.3 1.0 1.7 2.3 4.4 3.2 6.1 12.6 10.9 0.8 4.5 15.3 2.3 0.1 2.7 2.8 2.5
0.0 0.0 0.0 0.0 0.0 0.0 0.0 0.0 0.0 0.0 0.0 0.0 0.1 2.8 26.7 33.9 12.0 6.2 1.9 2.6 3.5 3.1 6.0 1.2 0.1 6.3 0.0 0.0 0.0 0.2 0.0 0.0 0.0 0.0 0.1 3.6 8.1 15.0 17.2 10.4 26.4 2.9 1.2 0.3 2.7 3.1 2.8
0.0 0.0 0.0 0.0 0.0 0.0 0.0 0.0 0.0 0.0 0.0 0.5 0.0 2.7 25.5 32.2 6.5 1.8 1.7 1.4 1.3 1.4 3.5 1.9 0.7 0.0 0.0 0.1 7.8 15.6 13.9 7.9 2.2 0.0 0.0 0.4 3.4 23.8 21.7 11.7 4.5 4.3 7.1 6.6 5.2 4.0 2.5
0.0 0.0 0.0 0.0 0.0 0.0 0.0 0.0 0.0 0.0 0.0 0.0 0.0 0.0 13.1 39.6 16.3 0.4 2.3 1.3 6.0 5.5 6.7 3.2 0.0 0.0 1.4 13.2 24.3 27.3 12.9 8.5 4.2 1.7 0.0 0.0 1.4 17.8 22.8 23.4 16.0 7.9 2.5 2.5 4.3 6.8 3.1
0.0 0.0 0.0 0.0 0.0 0.0 0.0 0.0 0.0 0.0 0.0 0.0 0.0 0.0 8.2 44.4 3.3 0.0 9.9 8.1 0.8 2.0 11.7 4.1 2.4 0.5 1.1 21.2 36.5 24.6 9.9 1.1 7.1 4.0 3.1 5.8 10.9 20.2 16.2 26.0 7.7 3.2 4.1 3.7 6.7 9.1 3.3
0.0 0.0 0.0 0.0 0.0 0.0 0.0 0.0 0.0 0.0 0.0 0.0 0.0 0.0 4.5 38.4 5.6 0.0 0.1 5.8 1.6 2.5 14.1 1.4 11.9 10.5 17.1 34.5 28.9 21.7 16.6 6.9 7.6 6.6 6.0 3.6 16.9 20.3 19.7 25.4 15.9 2.4 3.8 4.1 5.2 3.3 2.0
0.0 0.0 0.0 0.0 0.0 0.0 0.0 0.0 0.0 0.0 0.0 0.0 10.1 0.0 0.0 18.2 8.5 0.2 0.0 0.0 0.0 0.0 3.6 4.6 10.4 9.4 13.2 19.9 20.4 17.3 19.5 12.8 9.5 11.3 6.7 13.3 10.4 12.4 11.3 8.7 3.7 2.9 3.4 3.3 2.1 1.6 1.8

GFSGBSN_prec_snow_285.txt.gz
Snowfall_Accumulation
0.0 0.0 0.0 0.0 0.0 0.0 0.0 0.0 0.0 0.0 0.0 0.0 0.0 0.0 0.0 0.0 0.0 0.0 0.0 0.0 0.0 0.0 0.0 0.0 0.0 0.0 0.0 0.0 0.0 0.0 0.0 0.0 0.0 0.0 0.0 0.0 0.0 0.0 0.0 0.0 0.0 0.0 0.0 0.0 0.0 0.0 0.0
0.0 0.0 0.0 0.0 0.0 0.0 0.0 0.0 0.0 0.0 0.0 0.0 0.0 0.0 0.0 0.0 0.0 0.0 0.0 0.0 0.0 0.0 0.0 0.0 0.0 0.0 0.0 0.0 0.0 0.0 0.0 0.0 0.0 0.0 0.0 0.0 0.0 0.0 0.0 0.0 0.0 0.0 0.0 0.0 0.0 0.0 0.0
0.0 0.0 0.0 0.0 0.0 0.0 0.0 0.0 0.0 0.0 0.0 0.0 0.0 0.0 0.0 0.0 0.0 0.0 0.0 0.0 0.0 0.0 0.0 0.0 0.0 0.0 0.0 0.0 0.0 0.0 0.0 0.0 0.0 0.0 0.0 0.0 0.0 0.0 0.0 0.0 0.0 0.0 0.0 0.0 0.0 0.0 0.0
0.0 0.0 0.0 0.0 0.0 0.0 0.0 0.0 0.0 0.0 0.0 0.0 0.0 0.0 0.0 0.0 0.0 0.0 0.0 0.0 0.0 0.0 0.0 0.0 0.0 0.0 0.0 0.0 0.0 0.0 0.0 0.0 0.0 0.0 0.0 0.0 0.0 0.0 0.0 0.0 0.0 0.0 0.0 0.0 0.0 0.0 0.0
0.0 0.0 0.0 0.0 0.0 0.0 0.0 0.0 0.0 0.0 0.0 0.0 0.0 0.0 0.0 0.0 0.0 0.0 0.0 0.0 0.0 0.0 0.0 0.0 0.0 0.0 0.0 0.0 0.0 0.0 0.0 0.0 0.0 0.0 0.0 0.0 0.0 0.0 0.0 0.0 0.0 0.0 0.0 0.0 0.0 0.0 0.0
0.0 0.0 0.0 0.0 0.0 0.0 0.0 0.0 0.0 0.0 0.0 0.0 0.0 0.0 0.0 0.0 0.0 0.0 0.0 0.0 0.0 0.0 0.0 0.0 0.0 0.0 0.0 0.0 0.0 0.0 0.0 0.0 0.0 0.0 0.0 0.0 0.0 0.0 0.0 0.0 0.0 0.0 0.0 0.0 0.0 0.0 0.0
0.0 0.0 0.0 0.0 0.0 0.0 0.0 0.0 0.0 0.0 0.0 0.0 0.0 0.0 0.0 0.0 0.0 0.0 0.0 0.0 0.0 0.0 0.0 0.0 0.0 0.0 0.0 0.0 0.0 0.0 0.0 0.0 0.0 0.0 0.0 0.0 0.0 0.0 0.0 0.0 0.0 0.0 0.0 0.0 0.0 0.0 0.0
0.0 0.0 0.0 0.0 0.0 0.0 0.0 0.0 0.0 0.0 0.0 0.0 0.0 0.0 0.0 0.0 0.0 0.0 0.0 0.0 0.0 0.0 0.0 0.0 0.0 0.0 0.0 0.0 0.0 0.0 0.0 0.0 0.0 0.0 0.0 0.0 0.0 0.0 0.0 0.0 0.0 0.0 0.0 0.0 0.0 0.0 0.0
0.0 0.0 0.0 0.0 0.0 0.0 0.0 0.0 0.0 0.0 0.0 0.0 0.0 0.0 0.0 0.0 0.0 0.0 0.0 0.0 0.0 0.0 0.7 0.0 0.0 0.0 0.0 0.0 0.0 0.0 0.0 0.0 0.0 0.0 0.0 0.0 0.0 0.0 0.0 0.0 0.0 0.0 0.0 0.0 0.0 0.0 0.0
0.0 0.0 0.0 0.0 0.0 0.0 0.0 0.0 0.0 0.0 0.0 0.0 0.0 0.0 0.0 0.0 0.0 0.0 0.0 0.0 0.0 0.0 1.8 0.0 0.0 0.0 0.0 0.0 0.0 0.0 0.0 0.0 0.0 0.0 0.0 0.0 0.0 0.0 0.0 0.0 0.0 0.0 0.0 0.0 0.0 0.0 0.0
0.0 0.0 0.0 0.0 0.0 0.0 0.0 0.0 0.0 0.0 0.0 0.0 0.0 0.0 0.0 0.0 0.0 0.0 0.0 0.0 0.0 0.0 19.8 0.0 0.0 0.0 0.0 0.0 0.0 0.0 0.0 0.0 0.0 0.0 0.0 0.0 0.0 0.0 0.0 0.0 0.0 0.0 0.0 0.0 0.0 0.0 0.0
0.0 0.0 0.0 0.0 0.0 0.0 0.0 0.0 0.0 0.0 0.0 0.0 0.0 0.0 0.0 0.0 0.0 0.0 0.0 0.0 0.0 13.4 21.3 0.1 0.0 0.0 0.0 0.0 0.0 0.0 0.0 0.0 0.0 0.0 0.0 0.0 0.0 0.0 0.0 0.0 0.0 0.0 0.0 0.0 0.0 0.0 0.9
0.0 0.0 0.0 0.0 0.0 0.0 0.0 0.0 0.0 0.0 0.0 0.0 0.0 0.0 0.0 0.0 0.0 0.0 0.0 0.0 32.2 47.5 0.0 0.0 0.0 0.0 0.0 0.0 0.0 0.0 0.0 0.0 0.0 0.7 0.2 0.0 0.0 0.0 0.0 0.0 0.0 0.0 0.1 1.5 0.9 0.7 0.0
0.0 0.0 0.0 0.0 0.0 0.0 0.0 0.0 0.0 0.0 0.0 0.0 0.0 0.0 0.0 0.0 0.0 0.0 0.0 7.5 67.1 6.2 2.4 0.0 0.0 0.0 0.2 0.0 0.4 0.0 0.0 0.3 0.0 0.0 0.0 0.2 0.3 0.0 0.0 0.0 0.0 0.0 0.0 1.8 2.6 0.4 0.4
0.0 0.0 0.0 0.0 0.0 0.0 0.0 0.0 0.0 0.0 0.0 0.0 0.0 0.0 0.0 0.0 0.0 0.0 0.4 77.6 32.9 0.0 0.3 0.2 0.0 0.0 0.2 0.0 0.0 0.4 0.5 0.4 0.0 0.0 0.7 0.7 0.1 0.0 0.0 0.0 0.0 0.0 0.6 0.0 2.6 1.1 1.1
0.0 0.0 0.0 0.0 0.0 0.0 0.0 0.0 0.0 0.0 0.0 0.0 0.0 0.0 0.0 0.0 0.0 0.0 10.6 52.2 10.2 0.0 0.0 0.0 0.3 0.6 0.1 0.0 0.5 0.8 0.5 1.6 0.2 0.0 0.0 0.0 0.2 0.0 0.0 0.0 0.0 0.0 0.0 3.4 5.6 7.7 3.2
0.0 0.0 0.0 0.0 0.0 0.0 0.0 0.0 0.0 0.0 0.0 0.0 0.0 4.2 0.0 0.0 0.0 0.3 62.0 15.9 3.7 0.0 0.0 0.3 0.7 0.1 0.3 0.1 0.3 0.6 1.9 0.6 0.0 0.0 0.0 0.0 0.8 0.5 0.0 0.0 0.0 0.0 0.9 0.3 1.4 2.5 5.2
0.0 0.0 0.0 0.0 0.0 0.0 0.0 0.0 0.0 0.0 0.0 0.0 0.0 56.3 0.0 0.0 28.1 47.9 43.0 7.3 0.0 0.1 0.0 0.0 0.0 0.2 0.6 0.4 0.3 0.7 0.1 0.0 0.0 0.0 1.7 0.7 1.6 1.3 0.3 0.0 0.0 0.0 0.0 0.6 10.0 4.6 2.8
0.0 0.0 0.0 0.0 0.0 0.0 0.0 0.0 0.0 0.0 0.0 0.0 29.3 28.4 0.0 0.0 90.0 64.8 12.8 4.4 0.1 0.0 0.0 0.1 0.2 0.0 0.1 0.7 2.4 1.1 1.2 0.0 0.0 1.7 2.7 1.2 4.3 3.9 0.8 0.0 0.0 0.2 1.4 1.4 3.0 2.6 4.8
0.0 0.0 0.0 0.0 0.0 0.0 0.0 0.0 0.0 0.0 0.0 0.0 12.9 55.2 8.5 4.4 24.4 24.4 21.1 14.1 7.2 0.1 0.3 0.2 0.9 0.0 0.1 0.2 0.4 0.6 1.2 0.0 0.0 0.5 0.0 0.0 3.7 4.9 3.8 4.3 2.3 2.9 0.7 1.6 5.8 18.8 9.1
0.0 0.0 0.0 0.0 0.0 0.0 0.0 0.0 0.0 0.0 0.0 0.0 28.0 50.3 2.0 60.1 49.5 18.5 12.4 14.2 9.6 8.5 4.5 2.7 4.5 1.8 2.7 3.5 2.6 1.0 1.3 1.8 0.8 0.0 3.2 3.4 13.0 5.9 1.6 0.2 0.4 1.9 1.3 0.2 4.3 1.9 14.2
0.0 0.0 0.0 0.0 0.0 0.0 0.0 0.0 0.0 0.0 0.0 0.0 61.7 26.0 3.5 8.8 4.6 12.0 16.0 20.2 8.2 6.9 8.9 7.8 9.6 4.9 1.7 7.6 4.5 3.8 1.5 0.4 2.1 1.2 3.8 1.6 9.1 6.7 8.8 0.0 1.8 4.0 1.7 0.3 1.7 1.9 4.4
0.0 0.0 0.0 0.0 0.0 0.0 0.0 0.0 0.0 0.0 0.0 14.8 6.6 0.0 13.0 9.3 9.4 15.2 19.4 8.3 5.4 3.4 5.2 2.2 5.6 6.0 3.7 5.6 2.7 1.6 1.3 1.0 1.7 2.3 4.4 3.2 6.1 12.6 10.9 0.8 4.5 15.3 2.3 0.1 2.7 2.8 2.5
0.0 0.0 0.0 0.0 0.0 0.0 0.0 0.0 0.0 0.0 0.0 0.0 0.1 3.2 27.3 34.0 12.0 6.2 1.9 2.6 3.5 3.1 6.0 1.2 0.1 6.3 0.0 0.0 0.0 0.2 0.0 0.0 0.0 0.0 0.1 3.6 8.1 15.0 17.2 10.4 26.7 2.9 1.2 0.3 2.7 3.1 2.8
0.0 0.0 0.0 0.0 0.0 0.0 0.0 0.0 0.0 0.0 0.0 0.5 0.0 3.3 26.7 32.8 6.5 1.8 1.7 1.4 1.3 1.4 3.5 1.9 0.7 0.0 0.0 0.1 7.8 15.6 13.9 7.9 2.2 0.0 0.0 0.4 3.4 23.8 21.7 11.7 4.5 4.3 7.1 6.6 5.2 4.0 2.5
0.0 0.0 0.0 0.0 0.0 0.0 0.0 0.0 0.0 0.0 0.0 0.0 0.0 0.0 14.8 41.0 16.3 0.4 2.4 1.3 6.0 5.5 6.7 3.2 0.0 0.0 1.4 13.2 24.3 27.4 13.0 8.5 4.2 1.7 0.0 0.0 1.4 17.8 22.8 23.4 16.0 7.9 2.5 2.5 4.3 6.9 3.1
0.0 0.0 0.0 0.0 0.0 0.0 0.0 0.0 0.0 0.0 0.0 0.0 0.0 0.0 10.8 47.1 3.4 0.0 10.1 8.3 0.9 2.3 11.9 4.1 2.4 0.5 1.1 21.3 36.6 24.7 9.9 1.1 7.1 4.0 3.1 5.8 10.9 20.5 16.5 26.0 7.7 3.2 4.1 3.7 6.7 9.7 3.7
0.0 0.0 0.0 0.0 0.0 0.0 0.0 0.0 0.0 0.0 0.0 0.0 0.0 0.0 5.4 41.4 6.4 0.2 0.1 6.1 1.9 2.8 14.6 1.5 12.3 10.5 17.1 34.7 29.1 21.8 16.7 6.9 7.6 6.6 6.0 3.6 16.9 21.1 20.5 26.4 16.3 2.4 3.8 4.4 6.0 4.1 2.5
0.0 0.0 0.0 0.0 0.0 0.0 0.0 0.0 0.0 0.0 0.0 0.0 10.4 0.0 0.0 20.6 10.3 0.2 0.0 0.0 0.0 0.0 4.1 4.8 10.7 9.5 13.6 20.4 20.8 17.6 19.8 13.1 9.6 11.7 6.7 13.4 10.4 12.5 11.8 9.0 3.7 2.9 3.8 3.5 2.1 1.6 1.8

GFSGBSN_prec_snow_291.txt.gz
Snowfall_Accumulation
0.0 0.0 0.0 0.0 0.0 0.0 0.0 0.0 0.0 0.0 0.0 0.0 0.0 0.0 0.0 0.0 0.0 0.0 0.0 0.0 0.0 0.0 0.0 0.0 0.0 0.0 0.0 0.0 0.0 0.0 0.0 0.0 0.0 0.0 0.0 0.0 0.0 0.0 0.0 0.0 0.0 0.0 0.0 0.0 0.0 0.0 0.0
0.0 0.0 0.0 0.0 0.0 0.0 0.0 0.0 0.0 0.0 0.0 0.0 0.0 0.0 0.0 0.0 0.0 0.0 0.0 0.0 0.0 0.0 0.0 0.0 0.0 0.0 0.0 0.0 0.0 0.0 0.0 0.0 0.0 0.0 0.0 0.0 0.0 0.0 0.0 0.0 0.0 0.0 0.0 0.0 0.0 0.0 0.0
0.0 0.0 0.0 0.0 0.0 0.0 0.0 0.0 0.0 0.0 0.0 0.0 0.0 0.0 0.0 0.0 0.0 0.0 0.0 0.0 0.0 0.0 0.0 0.0 0.0 0.0 0.0 0.0 0.0 0.0 0.0 0.0 0.0 0.0 0.0 0.0 0.0 0.0 0.0 0.0 0.0 0.0 0.0 0.0 0.0 0.0 0.0
0.0 0.0 0.0 0.0 0.0 0.0 0.0 0.0 0.0 0.0 0.0 0.0 0.0 0.0 0.0 0.0 0.0 0.0 0.0 0.0 0.0 0.0 0.0 0.0 0.0 0.0 0.0 0.0 0.0 0.0 0.0 0.0 0.0 0.0 0.0 0.0 0.0 0.0 0.0 0.0 0.0 0.0 0.0 0.0 0.0 0.0 0.0
0.0 0.0 0.0 0.0 0.0 0.0 0.0 0.0 0.0 0.0 0.0 0.0 0.0 0.0 0.0 0.0 0.0 0.0 0.0 0.0 0.0 0.0 0.0 0.0 0.0 0.0 0.0 0.0 0.0 0.0 0.0 0.0 0.0 0.0 0.0 0.0 0.0 0.0 0.0 0.0 0.0 0.0 0.0 0.0 0.0 0.0 0.0
0.0 0.0 0.0 0.0 0.0 0.0 0.0 0.0 0.0 0.0 0.0 0.0 0.0 0.0 0.0 0.0 0.0 0.0 0.0 0.0 0.0 0.0 0.0 0.0 0.0 0.0 0.0 0.0 0.0 0.0 0.0 0.0 0.0 0.0 0.0 0.0 0.0 0.0 0.0 0.0 0.0 0.0 0.0 0.0 0.0 0.0 0.0
0.0 0.0 0.0 0.0 0.0 0.0 0.0 0.0 0.0 0.0 0.0 0.0 0.0 0.0 0.0 0.0 0.0 0.0 0.0 0.0 0.0 0.0 0.0 0.0 0.0 0.0 0.0 0.0 0.0 0.0 0.0 0.0 0.0 0.0 0.0 0.0 0.0 0.0 0.0 0.0 0.0 0.0 0.0 0.0 0.0 0.0 0.0
0.0 0.0 0.0 0.0 0.0 0.0 0.0 0.0 0.0 0.0 0.0 0.0 0.0 0.0 0.0 0.0 0.0 0.0 0.0 0.0 0.0 0.0 0.0 0.0 0.0 0.0 0.0 0.0 0.0 0.0 0.0 0.0 0.0 0.0 0.0 0.0 0.0 0.0 0.0 0.0 0.0 0.0 0.0 0.0 0.0 0.0 0.0
0.0 0.0 0.0 0.0 0.0 0.0 0.0 0.0 0.0 0.0 0.0 0.0 0.0 0.0 0.0 0.0 0.0 0.0 0.0 0.0 0.0 0.0 0.7 0.0 0.0 0.0 0.0 0.0 0.0 0.0 0.0 0.0 0.0 0.0 0.0 0.0 0.0 0.0 0.0 0.0 0.0 0.0 0.0 0.0 0.0 0.0 0.0
0.0 0.0 0.0 0.0 0.0 0.0 0.0 0.0 0.0 0.0 0.0 0.0 0.0 0.0 0.0 0.0 0.0 0.0 0.0 0.0 0.0 0.0 1.8 0.0 0.0 0.0 0.0 0.0 0.0 0.0 0.0 0.0 0.0 0.0 0.0 0.0 0.0 0.0 0.0 0.0 0.0 0.0 0.0 0.0 0.0 0.0 0.0
0.0 0.0 0.0 0.0 0.0 0.0 0.0 0.0 0.0 0.0 0.0 0.0 0.0 0.0 0.0 0.0 0.0 0.0 0.0 0.0 0.0 0.0 19.8 0.0 0.0 0.0 0.0 0.0 0.0 0.0 0.0 0.0 0.0 0.0 0.0 0.0 0.0 0.0 0.0 0.0 0.0 0.0 0.0 0.0 0.0 0.0 0.0
0.0 0.0 0.0 0.0 0.0 0.0 0.0 0.0 0.0 0.0 0.0 0.0 0.0 0.0 0.0 0.0 0.0 0.0 0.0 0.0 0.0 13.4 21.3 0.1 0.0 0.0 0.0 0.0 0.0 0.0 0.0 0.0 0.0 0.0 0.0 0.0 0.0 0.0 0.0 0.0 0.0 0.0 0.0 0.0 0.0 0.0 0.9
0.0 0.0 0.0 0.0 0.0 0.0 0.0 0.0 0.0 0.0 0.0 0.0 0.0 0.0 0.0 0.0 0.0 0.0 0.0 0.0 32.2 47.5 0.0 0.0 0.0 0.0 0.0 0.0 0.0 0.0 0.0 0.0 0.0 0.7 0.2 0.0 0.0 0.0 0.0 0.0 0.0 0.0 0.1 1.5 0.9 0.7 0.0
0.0 0.0 0.0 0.0 0.0 0.0 0.0 0.0 0.0 0.0 0.0 0.0 0.0 0.0 0.0 0.0 0.0 0.0 0.0 7.5 67.1 6.2 2.4 0.0 0.0 0.0 0.2 0.0 0.4 0.0 0.0 0.3 0.0 0.0 0.0 0.2 0.3 0.0 0.0 0.0 0.0 0.0 0.0 1.8 2.6 0.4 0.4
0.0 0.0 0.0 0.0 0.0 0.0 0.0 0.0 0.0 0.0 0.0 0.0 0.0 0.0 0.0 0.0 0.0 0.0 0.4 77.6 32.9 0.0 0.3 0.2 0.0 0.0 0.2 0.0 0.0 0.4 0.5 0.4 0.0 0.0 0.7 0.7 0.1 0.0 0.0 0.0 0.0 0.0 0.6 0.0 2.6 1.1 1.1
0.0 0.0 0.0 0.0 0.0 0.0 0.0 0.0 0.0 0.0 0.0 0.0 0.0 0.0 0.0 0.0 0.0 0.0 10.6 52.2 10.2 0.0 0.0 0.0 0.3 0.6 0.1 0.0 0.5 0.8 0.5 1.6 0.2 0.0 0.0 0.0 0.2 0.0 0.0 0.0 0.0 0.0 0.0 3.4 5.6 7.7 3.2
0.0 0.0 0.0 0.0 0.0 0.0 0.0 0.0 0.0 0.0 0.0 0.0 0.0 4.2 0.0 0.0 0.0 0.3 62.0 15.9 3.7 0.0 0.0 0.3 0.7 0.1 0.3 0.1 0.3 0.6 1.9 0.6 0.0 0.0 0.0 0.0 0.8 0.5 0.0 0.0 0.0 0.0 0.9 0.3 1.4 2.5 5.2
0.0 0.0 0.0 0.0 0.0 0.0 0.0 0.0 0.0 0.0 0.0 0.0 0.0 56.3 0.0 0.0 28.1 47.9 43.0 7.3 0.0 0.1 0.0 0.0 0.0 0.2 0.6 0.4 0.3 0.7 0.1 0.0 0.0 0.0 1.7 0.7 1.6 1.3 0.3 0.0 0.0 0.0 0.0 0.6 10.0 4.6 2.8
0.0 0.0 0.0 0.0 0.0 0.0 0.0 0.0 0.0 0.0 0.0 0.0 29.3 28.4 0.0 0.0 90.0 64.8 12.8 4.4 0.1 0.0 0.0 0.1 0.2 0.0 0.1 0.7 2.4 1.1 1.2 0.0 0.0 1.7 2.7 1.2 4.3 3.9 0.8 0.0 0.0 0.2 1.4 1.4 3.0 2.6 4.8
0.0 0.0 0.0 0.0 0.0 0.0 0.0 0.0 0.0 0.0 0.0 0.0 12.9 55.2 8.5 4.4 24.4 24.4 21.1 14.1 7.2 0.1 0.3 0.2 0.9 0.0 0.1 0.2 0.4 0.6 1.2 0.0 0.0 0.5 0.0 0.0 3.7 4.9 3.8 4.3 2.3 2.9 0.7 1.6 5.8 18.8 9.1
0.0 0.0 0.0 0.0 0.0 0.0 0.0 0.0 0.0 0.0 0.0 0.0 28.0 50.3 2.0 60.1 49.5 18.5 12.4 14.2 9.6 8.5 4.5 2.7 4.5 1.8 2.7 3.5 2.6 1.0 1.3 1.8 0.8 0.0 3.2 3.4 13.0 5.9 1.6 0.2 0.4 1.9 1.3 0.2 4.3 1.9 14.2
0.0 0.0 0.0 0.0 0.0 0.0 0.0 0.0 0.0 0.0 0.0 0.0 61.7 26.0 3.5 8.8 4.6 12.0 16.0 20.2 8.2 6.9 8.9 7.8 9.6 4.9 1.7 7.6 4.5 3.8 1.5 0.4 2.1 1.2 3.8 1.6 9.1 6.7 8.8 0.0 1.8 4.0 1.7 0.3 1.7 1.9 4.4
0.0 0.0 0.0 0.0 0.0 0.0 0.0 0.0 0.0 0.0 0.0 14.8 6.6 0.0 13.0 9.3 9.4 15.2 19.4 8.3 5.4 3.4 5.2 2.2 5.6 6.0 3.7 5.6 2.7 1.6 1.3 1.0 1.7 2.3 4.4 3.2 6.1 12.6 10.9 0.8 4.5 15.3 2.3 0.1 2.7 2.8 2.5
0.0 0.0 0.0 0.0 0.0 0.0 0.0 0.0 0.0 0.0 0.0 0.0 0.1 3.2 27.6 34.0 12.0 6.2 1.9 2.6 3.5 3.1 6.0 1.2 0.1 6.3 0.0 0.0 0.0 0.2 0.0 0.0 0.0 0.0 0.1 3.6 8.1 15.0 17.2 10.4 26.7 2.9 1.2 0.3 2.7 3.1 2.8
0.0 0.0 0.0 0.0 0.0 0.0 0.0 0.0 0.0 0.0 0.0 0.5 0.0 3.3 26.7 33.2 6.5 1.8 1.7 1.4 1.3 1.4 3.5 1.9 0.7 0.0 0.0 0.1 7.8 15.6 13.9 7.9 2.2 0.0 0.0 0.4 3.4 23.8 21.7 11.7 4.5 4.3 7.1 6.6 5.2 4.0 2.5
0.0 0.0 0.0 0.0 0.0 0.0 0.0 0.0 0.0 0.0 0.0 0.0 0.0 0.0 15.4 42.1 16.3 0.4 2.4 1.3 6.0 5.5 6.7 3.2 0.0 0.0 1.4 13.2 24.3 27.4 13.0 8.5 4.2 1.7 0.0 0.0 1.4 17.8 22.8 23.4 16.0 7.9 2.5 2.5 4.3 6.9 3.1
0.0 0.0 0.0 0.0 0.0 0.0 0.0 0.0 0.0 0.0 0.0 0.0 0.0 0.0 11.1 48.3 3.4 0.0 10.1 8.3 0.9 2.3 12.2 4.1 2.4 0.5 1.1 21.3 36.6 24.7 9.9 1.1 7.1 4.0 3.1 5.8 10.9 20.5 16.8 26.4 7.7 3.2 4.1 3.7 6.7 10.6 3.7
0.0 0.0 0.0 0.0 0.0 0.0 0.0 0.0 0.0 0.0 0.0 0.0 0.0 0.0 6.1 42.8 6.9 0.2 0.1 6.1 1.9 2.8 14.6 1.5 12.5 10.5 17.1 34.8 29.1 21.8 16.7 6.9 7.6 6.6 6.0 3.6 16.9 21.1 20.5 26.4 16.6 2.4 3.8 4.4 6.0 4.1 2.5
0.0 0.0 0.0 0.0 0.0 0.0 0.0 0.0 0.0 0.0 0.0 0.0 10.7 0.0 0.0 22.5 11.5 0.2 0.0 0.0 0.0 0.0 4.1 4.8 10.7 9.8 13.9 20.5 21.0 17.7 19.8 13.1 9.6 11.7 6.7 13.4 10.4 12.7 11.9 9.0 3.8 3.1 3.8 3.5 2.1 1.7 1.8